LiveATC.Net - Listen to live air traffic control over the Internet!


ICAO: KENW  IATA: ENW   Airport: Kenosha Regional Airport
City: Kenosha   State/Province: Wisconsin
Country: United States   Continent: North America
KENW METAR Weather: KENW 210415Z AUTO 26023G33KT 10SM OVC031 02/M03 A2979 RMK AO2 PK WND 24033/0415 T00221033
KENW Flight Activity (FlightAware)
KENW Airport Info   (iFlightPlanner)
KENW VFR Sectional Chart   (iFlightPlanner) 
KENW IFR Low Chart   (iFlightPlanner) 

KENW Ground/Tower
Feed Status: UP   Listeners: 0
Listen in your browser - HTML5 player (in browser, HTML5)
Click here to listen with your own player (launches your MP3 player)
KENW Ground/Tower Audio Archives
FacilityFrequency
Kenosha Ground121.875
Kenosha Tower118.600

NOTICE

Unauthorized use prohibited. See LiveATC.net Terms of Service


Find LiveATC Audio Streams


Airport/ARTCC Code

Frequency Search
(e.g., 124.400, 128.75)
Site-wide search
 


Browse LiveATC Feeds
Top 50 LiveATC Feeds
LiveATC Feed Map
Bad Weather Areas

LiveATC FAQ
Offer LiveATC feed
Contact LiveATC.net
Press Inquiries

LiveATC on iPhone
LiveATC on Android

Windows Phone
Windows 8/10

LiveATC Mobile
(Mobile browser)

ATC Audio Archives
Interesting Recordings

LiveATC Forums


Home Page
About LiveATC.net
Make a Donation
Terms of Use
Privacy Policy

Canadian Air Freqs

AIRMETs/SIGMETs

FAA Airport Status
Nat'l Airspace Status
Arrival Demand Charts


Server Software By:
Icecast.org
Liquidsoap